Theta_e
288 288 286 286 285 284 285 285 285 285 284 285 287 287 290 294 291 291 293 294 294 294 296 297 297 298 297 298 298 298 298 298 299 300 299 299 299 300 302 302 302 301 301 301
287 286 285 285 285 285 285 284 285 285 283 284 286 286 291 293 293 292 294 295 294 295 295 295 296 296 296 298 298 298 297 298 298 299 300 299 299 300 300 300 301 301 300 300
286 284 285 284 284 284 283 284 283 283 284 283 283 288 290 289 288 290 291 292 293 293 294 295 295 296 297 297 298 297 297 297 297 297 299 299 300 300 299 300 299 299 299 299
283 283 283 283 282 283 282 283 282 282 284 284 283 284 290 292 291 291 293 293 293 292 291 293 295 296 297 298 299 297 297 297 296 296 297 297 296 295 297 297 298 298 298 298
283 282 282 282 282 282 282 283 282 282 282 282 282 283 290 288 292 292 292 293 293 293 292 292 293 296 297 298 298 298 297 296 296 296 296 297 296 297 297 297 296 297 297 297
281 284 283 283 282 283 283 282 282 282 282 282 281 282 289 292 291 291 291 292 292 292 292 293 294 295 296 297 296 297 297 296 296 295 296 296 295 295 294 295 294 294 294 294
281 281 282 282 281 283 282 282 285 284 282 283 279 279 289 291 291 291 291 292 292 293 293 293 293 293 294 295 296 296 296 295 295 295 296 296 295 294 293 293 293 292 292 292
284 282 280 282 281 282 282 283 285 280 280 281 278 280 290 291 290 290 290 292 291 292 293 293 294 295 295 295 296 296 295 294 294 294 295 295 294 293 293 292 292 291 291 292
282 280 280 281 281 281 281 281 282 279 273 278 283 285 290 291 290 291 292 291 293 293 293 293 294 293 294 294 295 295 294 293 293 294 294 294 293 292 291 291 291 291 291 290
285 283 278 280 281 281 281 283 280 281 278 277 279 280 286 289 290 290 291 292 293 294 293 293 293 293 293 294 294 293 293 293 293 294 293 292 292 291 291 291 290 290 290 290
285 286 277 279 278 280 279 280 278 280 281 280 278 283 292 291 292 292 292 292 293 293 293 294 294 294 293 294 293 292 291 291 293 293 292 291 291 290 290 290 290 289 289 289
284 287 278 280 278 279 279 280 282 283 280 277 277 282 289 290 290 290 292 292 293 293 294 294 294 293 292 292 293 291 291 291 292 292 290 290 290 290 289 289 289 289 288 289
283 284 280 278 278 278 277 279 281 279 279 277 280 285 286 286 287 290 290 292 293 293 293 294 293 292 292 292 291 291 290 291 292 290 289 289 289 289 288 288 288 288 288 288
284 282 284 283 288 282 275 277 279 282 280 281 280 285 289 291 289 291 291 292 293 293 292 293 292 292 292 291 290 290 290 291 291 289 289 288 288 288 288 288 288 288 289 288
284 279 277 279 278 278 280 277 277 277 281 280 286 284 287 290 292 293 294 292 290 290 291 291 291 292 291 290 289 289 290 290 290 289 288 288 287 287 287 287 288 288 288 288
279 280 274 275 276 277 276 279 277 279 281 281 282 281 289 292 292 291 292 292 290 291 291 291 290 289 289 288 289 288 290 290 289 288 288 287 287 286 286 287 287 287 287 287
277 276 276 278 275 275 274 277 277 280 281 282 280 285 291 290 290 291 291 291 289 290 291 290 289 290 289 289 289 288 290 290 288 288 287 286 286 285 285 286 286 286 286 286
277 276 279 279 274 271 283 284 284 281 284 284 285 288 290 291 293 291 290 289 290 291 290 290 290 290 289 290 289 290 289 288 288 288 286 286 284 284 285 284 285 285 285 284
284 279 277 275 274 281 283 279 279 279 284 285 284 285 288 289 288 289 292 292 292 291 291 291 290 289 289 288 289 289 287 287 287 286 286 284 283 283 284 283 284 285 284 284
281 283 279 274 275 274 285 290 285 286 280 289 286 286 287 287 284 290 291 289 289 289 289 289 289 288 288 288 288 287 286 285 284 285 285 284 283 284 284 284 283 284 284 284
274 275 273 277 275 279 285 281 286 280 285 291 289 289 288 286 290 290 289 288 289 290 289 288 287 287 287 286 286 285 286 284 286 285 284 282 283 284 285 284 283 283 283 283
277 274 274 275 274 273 284 281 283 290 291 290 290 290 287 289 288 288 289 289 289 290 287 288 287 286 286 286 285 285 284 286 284 284 282 281 283 284 284 283 283 283 283 283
277 282 280 279 280 286 285 289 288 291 291 289 289 288 289 287 287 288 289 289 288 288 287 286 287 286 284 284 285 285 286 284 283 282 281 280 283 284 284 283 283 284 284 283
279 285 281 279 283 284 286 288 291 289 289 289 288 288 287 288 288 288 288 287 287 286 286 285 284 284 284 283 283 285 285 283 282 282 281 281 282 283 284 284 284 284 283 283
283 283 281 281 285 286 286 288 289 289 288 287 287 286 287 288 288 288 288 288 288 287 285 284 284 284 285 285 284 285 283 282 282 283 282 281 282 283 284 284 284 284 284 284
283 272 277 280 282 282 290 291 289 287 287 287 287 286 286 286 288 288 288 289 288 287 285 283 284 284 285 285 284 284 283 282 283 283 282 282 283 283 283 283 283 284 284 284
Wind_Speed
2 4 6 3 1 2 2 1 4 1 2 4 8 18 22 15 15 19 20 19 18 19 15 14 12 11 10 9 9 7 5 4 3 3 4 4 5 7 7 7 9 10 10 11
2 5 4 5 3 2 2 2 4 1 1 3 6 20 24 20 18 19 18 17 18 17 16 15 14 11 11 10 10 8 6 5 3 2 2 3 5 6 7 8 9 10 11 12
3 3 5 3 4 5 2 3 2 3 4 2 9 11 8 2 4 10 13 13 11 13 15 16 16 15 12 12 11 9 7 5 3 2 2 3 6 6 7 7 9 9 13 13
3 3 4 4 3 2 3 3 3 1 3 4 4 8 7 3 9 9 9 8 8 9 11 12 17 17 15 13 9 8 5 4 3 1 3 6 6 9 9 9 9 11 12 12
3 6 4 3 1 2 2 3 2 1 0 3 3 6 7 2 2 2 3 5 4 5 8 12 16 17 13 10 9 7 6 5 3 1 3 5 8 7 8 8 12 12 10 11
3 2 2 2 3 2 9 3 2 2 1 4 2 4 5 4 1 1 2 3 3 5 6 7 9 9 11 8 7 6 6 5 4 3 4 6 9 10 9 10 10 9 9 8
1 2 1 1 3 2 2 3 2 2 3 3 2 4 12 5 4 4 1 1 3 5 7 8 10 10 10 10 9 7 7 6 5 5 5 6 7 9 11 11 9 12 9 9
6 5 6 3 2 2 6 3 4 6 4 1 2 8 5 4 3 4 5 5 2 4 6 7 9 9 10 9 8 7 6 6 5 5 5 6 7 5 7 9 9 9 10 10
5 2 1 2 2 3 6 6 3 6 2 3 3 6 15 7 8 11 10 7 8 5 6 8 8 8 9 9 9 7 6 6 5 5 5 6 6 7 8 11 10 9 11 10
6 2 1 2 1 2 3 2 3 2 5 6 4 6 9 2 3 3 3 8 8 6 7 6 7 8 8 8 7 6 6 6 5 4 4 5 6 7 8 9 11 12 12 13
2 1 3 1 9 9 5 4 2 4 3 4 2 6 6 9 7 4 3 3 3 4 5 7 8 8 9 9 8 6 6 7 6 5 4 5 5 6 8 8 10 11 13 14
8 3 5 3 2 2 3 5 8 5 5 2 3 8 3 5 4 4 7 7 6 6 6 7 7 6 8 11 10 8 7 8 7 5 4 4 5 6 7 8 10 11 12 13
9 4 3 3 3 1 7 8 6 4 2 9 5 5 3 4 7 7 9 7 7 7 9 10 9 9 10 10 9 9 9 9 7 5 5 3 4 5 7 8 10 11 12 12
6 4 6 11 4 7 7 9 12 6 6 6 17 18 8 10 12 10 11 12 12 11 11 11 10 10 10 9 9 9 9 8 7 6 5 3 4 5 6 8 9 10 11 12
6 8 5 4 1 4 4 6 16 19 22 14 11 21 18 20 22 16 14 11 12 13 16 13 11 9 8 7 7 8 9 9 7 6 5 3 3 5 5 8 9 10 10 11
4 4 4 5 5 6 7 13 13 23 15 24 21 32 13 19 17 20 22 16 16 17 16 13 11 10 9 9 9 9 10 9 8 7 5 3 3 4 5 7 9 10 10 11
9 8 6 14 4 4 11 23 21 12 16 17 19 32 10 20 20 18 18 13 16 16 14 12 11 9 7 8 9 11 10 8 8 6 5 4 3 4 6 7 9 9 10 11
8 6 4 6 4 14 10 3 10 26 27 24 25 26 19 18 18 10 8 13 18 14 14 12 9 6 5 6 8 7 8 8 8 7 6 5 4 4 5 6 8 9 8 8
16 10 6 7 14 15 19 8 11 13 23 23 25 27 25 21 8 22 17 13 14 11 9 6 4 5 6 8 9 9 8 7 7 7 7 6 5 5 5 5 7 7 8 7
16 14 10 6 9 16 14 17 12 7 21 16 23 26 26 9 8 12 7 4 4 4 4 5 5 4 7 8 10 10 8 8 9 7 6 6 6 5 5 6 7 6 6 7
7 7 19 18 10 11 5 8 11 13 8 15 19 21 8 10 9 2 6 4 4 4 6 5 6 7 8 8 9 9 8 12 9 6 6 6 7 6 5 6 7 7 6 6
19 15 10 10 11 21 10 11 17 15 3 6 7 9 13 13 8 7 8 8 8 8 7 6 7 8 6 8 9 10 12 7 7 8 8 7 8 6 4 5 7 6 5 6
11 15 10 15 11 4 16 19 18 3 4 5 6 7 14 11 13 14 10 7 7 6 6 5 8 6 6 9 11 11 9 9 9 9 10 8 8 6 5 5 5 5 4 4
9 13 8 6 13 14 14 18 12 15 10 5 6 8 11 11 13 16 13 8 7 5 8 5 4 7 9 9 10 13 6 9 10 11 10 9 9 8 6 4 4 4 3 3
7 6 12 7 10 8 10 15 19 18 13 12 9 7 12 7 4 6 7 7 9 11 6 6 8 9 12 6 11 11 10 10 10 10 9 10 9 9 7 6 5 5 2 3
6 8 4 6 11 15 17 11 14 16 18 19 15 13 13 10 15 9 11 9 7 6 4 5 7 6 10 6 8 9 10 12 12 11 9 9 9 8 7 6 5 9 5 2
Wind_Direction
28 198 205 157 85 45 52 232 252 148 87 302 257 274 274 264 246 248 243 239 234 231 223 217 208 204 204 211 217 224 222 244 285 289 306 301 310 314 310 317 317 315 313 315
165 228 118 110 118 129 154 233 246 205 158 288 289 279 275 264 245 246 252 240 236 235 221 214 206 196 202 208 215 215 223 229 239 265 297 303 313 308 314 314 308 311 312 313
219 98 139 159 154 165 166 231 226 303 305 241 297 261 260 169 243 244 249 249 247 239 234 218 201 197 199 207 209 214 216 230 245 260 289 295 290 276 297 313 315 319 315 312
93 136 173 165 176 206 220 133 115 345 302 280 333 293 305 261 286 243 243 223 229 219 218 218 204 201 199 209 203 203 203 225 227 216 309 316 307 306 313 310 308 310 310 308
135 164 170 187 108 178 99 152 125 140 137 314 171 251 266 355 253 18 28 192 212 219 210 203 204 203 205 197 197 193 196 215 211 242 310 309 304 304 309 308 310 309 307 306
75 20 353 48 75 45 134 132 111 120 197 240 91 269 269 230 103 95 79 114 163 172 178 186 187 186 189 182 192 200 209 217 205 242 284 293 299 307 310 313 310 310 310 311
139 153 94 232 127 100 211 198 259 237 190 257 131 230 261 282 247 239 59 104 161 169 181 181 185 189 193 195 197 202 213 223 212 241 269 292 300 307 307 312 310 312 310 312
186 230 178 147 273 246 188 266 231 242 220 73 131 232 246 193 242 268 279 237 260 210 203 211 207 206 207 205 202 209 214 227 223 254 285 301 310 311 309 309 309 304 306 312
155 180 65 21 341 309 149 218 10 101 71 256 232 261 278 236 255 241 232 227 238 239 229 224 219 219 214 208 211 219 216 217 228 258 286 304 311 316 311 309 306 305 309 313
181 148 93 74 286 100 267 99 153 236 208 231 221 273 252 174 156 113 166 207 226 243 250 245 240 228 220 221 215 214 215 227 228 246 274 302 313 314 310 308 305 310 311 311
122 227 111 188 198 181 166 208 228 295 260 249 232 233 227 207 207 198 170 164 233 240 243 237 239 233 223 219 216 216 208 215 223 236 261 288 304 305 303 302 309 311 311 307
182 126 180 194 54 318 280 222 196 225 200 253 336 259 203 226 235 223 243 256 245 242 243 247 248 241 228 226 219 224 213 208 213 224 244 272 296 305 306 310 311 310 303 304
180 202 162 187 178 173 230 203 216 113 96 193 207 238 93 223 258 249 246 241 242 244 262 257 253 241 236 230 221 221 207 204 199 207 233 260 298 306 308 308 308 307 301 306
146 196 205 229 178 121 194 197 200 205 209 195 226 249 243 257 236 237 245 256 261 260 260 265 260 246 240 234 221 203 192 193 192 202 223 260 295 302 304 305 302 303 304 308
180 221 186 266 235 204 218 182 191 204 223 222 253 238 234 248 262 277 279 276 274 267 270 260 255 252 240 218 198 191 191 186 188 200 210 236 284 297 301 301 304 302 306 308
191 220 155 248 200 227 263 232 205 217 231 249 264 270 243 264 281 272 269 271 266 265 261 252 243 244 229 208 202 191 191 191 187 197 197 210 264 293 303 297 302 302 309 318
172 167 164 252 135 158 264 227 209 207 213 218 230 247 250 261 254 258 271 259 249 248 257 261 249 237 217 207 193 194 190 176 189 203 186 197 227 282 292 301 304 304 311 318
171 187 189 245 144 228 241 178 205 217 231 218 248 258 252 255 267 277 253 256 268 264 255 246 235 219 204 186 182 180 170 182 196 202 193 190 213 249 277 295 294 297 304 317
192 188 203 205 209 283 284 173 167 180 246 221 233 248 253 258 297 276 252 249 255 257 245 233 203 189 170 170 173 175 179 183 205 213 197 191 206 240 265 286 296 298 314 333
195 218 209 161 225 224 260 208 165 134 263 181 211 233 240 148 236 259 174 175 211 224 208 200 181 176 174 172 170 178 191 187 209 206 197 190 205 228 261 278 290 295 318 318
173 203 217 221 227 264 237 141 156 189 260 186 199 227 188 199 208 66 123 157 182 177 180 179 187 204 192 165 172 193 188 212 198 167 171 206 218 211 238 278 284 293 316 321
190 177 194 213 230 246 137 144 204 212 167 178 190 201 196 212 178 182 204 197 199 193 179 192 199 215 181 174 180 200 208 200 171 165 188 209 220 210 206 243 277 286 312 332
213 209 198 200 213 222 191 211 222 285 186 200 185 198 208 187 196 204 216 207 227 217 216 185 202 225 199 191 193 208 218 167 172 175 198 205 215 218 209 230 259 285 314 341
235 212 228 170 230 234 214 228 227 214 221 198 222 210 181 200 202 211 215 195 215 223 231 183 190 233 251 205 206 225 171 169 174 188 199 197 211 214 196 219 230 262 289 317
306 190 218 244 275 253 247 235 234 226 226 222 227 210 214 210 241 224 232 217 216 217 196 171 191 214 239 192 211 215 194 169 184 194 199 202 209 202 192 202 219 233 241 292
326 5 305 284 310 307 258 241 250 246 233 226 221 229 242 213 237 196 234 221 207 225 173 195 211 218 242 226 224 211 192 184 185 195 198 202 203 193 193 184 209 224 236 280